This demonstration page uses our WeatherBlox Daily Observations layout. Learn more.

Left ArrowRight Arrow

34.02893, -84.19858

Hourly Observations for July 20, 2021

Temp ( °F °C ) Dew Point ( °F °C ) Humidity (%) Winds ( mph kmh ) Pressure ( in mb ) Visibility ( mi km ) Precip ( " mm )
12:02 am 00:02 Cloudy with Light Rain 72 22.2 71 21.7 97 97 SSW 8 13 29.99 1015 10 16 0.01 0.25
12:53 am 00:53 Cloudy with Light Rain 71 21.7 71 21.7 100 100 SW 5 7 29.97 1015 8 13 0.03 0.76
1:41 am 01:41 Mostly Cloudy 71 21.7 71 21.7 100 100 S 5 7 29.97 1015 10 16 0.00 0.00
1:48 am 01:48 Mostly Cloudy 72 22 72 22 100 100 S 5 7 29.97 1015 10 16 0.00 0.00
1:53 am 01:53 Cloudy 71 21.7 71 21.7 100 100 S 3 6 29.96 1015 10 16 0.00 0.00
2:53 am 02:53 Cloudy 71 21.7 70 21.1 96 96 Calm 29.93 1014 8 13 0.00 0.00
3:30 am 03:30 Cloudy with Light Rain 71 21.7 70 21.1 96 96 SSE 3 6 29.95 1014 6 10 0.01 0.25
3:53 am 03:53 Cloudy 70 21.1 70 21.1 100 100 Calm 29.93 1014 7 11 0.01 0.25
4:19 am 04:19 Cloudy 71 21.7 70 21.1 96 96 Calm 29.94 1014 7 11 0.00 0.00
4:53 am 04:53 Cloudy 71 21.7 70 21.1 96 96 SSE 3 6 29.92 1013 7 11 0.00 0.00
5:53 am 05:53 Cloudy 71 21.7 70 21.1 96 96 Calm 29.93 1013 8 13 0.00 0.00
6:53 am 06:53 Cloudy 71 21.7 70 21.1 96 96 Calm 29.93 1014 10 16 0.00 0.00
7:53 am 07:53 Cloudy 71 21.7 70 21.1 96 96 SSW 3 6 29.95 1014 9 14 0.00 0.00
8:53 am 08:53 Cloudy 72 22.2 71 21.7 97 97 Calm 29.95 1014 8 13 0.00 0.00
9:53 am 09:53 Cloudy 72 22.2 71 21.7 97 97 S 3 6 29.96 1015 10 16 0.00 0.00
10:53 am 10:53 Cloudy 74 23.3 71 21.7 91 91 VRB 3 6 29.96 1015 10 16 0.00 0.00
11:00 am 11:00 Cloudy 75 23.9 71 21.7 88 88 VRB 3 6 29.96 1015 10 16 0.00 0.00
11:53 am 11:53 Cloudy 77 25 71 21.7 82 82 S 6 9 29.96 1015 10 16 0.00 0.00
12:00 pm 12:00 Cloudy 77 25 71 21.7 82 82 S 6 9 29.97 1015 10 16 0.00 0.00
12:53 pm 12:53 Cloudy 79 26.1 73 22.8 82 82 S 7 11 29.95 1014 10 16 0.00 0.00
1:00 pm 13:00 Mostly Cloudy 79 26.1 72 22.2 79 79 SW 3 6 29.94 1014 10 16 0.00 0.00
1:20 pm 13:20 Mostly Cloudy with Nearby Thunderstorms 80 26.7 72 22.2 76 76 SW 7 11 29.94 1014 10 16 0.00 0.00
1:42 pm 13:42 Partly Cloudy 81 27.2 71 21.7 72 72 SW 6 9 29.94 1014 10 16 0.00 0.00
1:53 pm 13:53 Partly Cloudy 81 27.2 71 21.7 72 72 VRB 3 6 29.94 1014 10 16 0.00 0.00
2:13 pm 14:13 Mostly Cloudy 75 23.9 70 21.1 84 84 N 12 19 29.95 1014 9 14 0.00 0.00
2:21 pm 14:21 Cloudy with Light Rain 74 23.3 71 21.7 91 91 N 13 20 29.95 1014 3 4 0.03 0.76
2:53 pm 14:53 Cloudy with Heavy Rain 71 21.7 71 21.7 100 100 Calm 29.95 1014 3 4 0.28 7.11
2:56 pm 14:56 Cloudy with Nearby Thunderstorms 72 22.2 71 21.7 97 97 NNE 5 7 29.96 1014 1 2 0.01 0.25
3:04 pm 15:04 Cloudy with Nearby Thunderstorms 72 22.2 71 21.7 97 97 N 8 13 29.96 1014 3 4 0.01 0.25
3:23 pm 15:23 Cloudy with Heavy Rain 73 22.8 72 22.2 96 96 N 3 6 29.96 1015 3 4 0.06 1.52
3:25 pm 15:25 Cloudy with Heavy Rain 73 22.8 72 22.2 96 96 N 5 7 29.96 1015 3 4 0.07 1.78
3:53 pm 15:53 Cloudy with Light Rain 73 22.8 72 22.2 96 96 VRB 6 9 29.94 1014 3 4 0.12 3.05
3:58 pm 15:58 Cloudy with Light Rain 74 23.3 72 22.2 94 94 VRB 3 6 29.94 1014 3 5 0.01 0.25
4:23 pm 16:23 Mostly Cloudy 76 24.4 73 22.8 91 91 VRB 5 7 29.94 1014 10 16 0.01 0.25
4:53 pm 16:53 Mostly Cloudy 77 25 72 22.2 85 85 Calm 29.93 1014 10 16 0.01 0.25
5:00 pm 17:00 Mostly Cloudy 76 24.4 71 21.7 85 85 NNE 5 7 29.94 1014 10 16 0.00 0.00
5:08 pm 17:08 Mostly Cloudy 76 24.4 72 22.2 88 88 Calm 29.94 1014 10 16 0.00 0.00
5:37 pm 17:37 Cloudy 75 23.9 71 21.7 88 88 Calm 29.95 1014 10 16 0.00 0.00
5:53 pm 17:53 Cloudy 75 23.9 71 21.7 88 88 NNE 5 7 29.94 1014 10 16 0.00 0.00
6:03 pm 18:03 Cloudy with Light Rain 75 23.9 71 21.7 88 88 VRB 3 6 29.95 1014 10 16 0.00 0.00
6:53 pm 18:53 Cloudy with Light Rain 73 22.8 71 21.7 94 94 E 3 6 29.95 1014 7 11 0.03 0.76
7:53 pm 19:53 Mostly Cloudy 73 22.8 71 21.7 94 94 Calm 29.96 1015 10 16 0.02 0.51
8:53 pm 20:53 Mostly Clear 73 22.8 72 22.2 96 96 Calm 29.96 1015 10 16 0.00 0.00
9:48 pm 21:48 Cloudy 73 23 72 22 94 94 Calm 29.96 1015 10 16 0.00 0.00
9:53 pm 21:53 Cloudy 73 22.8 71 21.7 94 94 ENE 3 6 29.96 1015 10 16 0.00 0.00
10:17 pm 22:17 Mostly Cloudy 73 22.8 71 21.7 94 94 Calm 29.96 1015 10 16 0.00 0.00
10:49 pm 22:49 Partly Cloudy 72 22 72 22 100 100 Calm 29.98 1015 10 16 0.00 0.00
10:53 pm 22:53 Partly Cloudy 72 22.2 71 21.7 97 97 Calm 29.97 1015 10 16 0.00 0.00
11:05 pm 23:05 Mostly Cloudy 72 22.2 71 21.7 97 97 Calm 29.98 1015 10 16 0.00 0.00
11:08 pm 23:08 Mostly Cloudy 72 22.2 71 21.7 97 97 Calm 29.98 1015 10 16 0.00 0.00
11:27 pm 23:27 Partly Cloudy 72 22.2 71 21.7 97 97 SE 3 6 29.98 1015 10 16 0.00 0.00
11:34 pm 23:34 Mostly Cloudy 72 22.2 71 21.7 97 97 Calm 29.98 1015 10 16 0.00 0.00
11:53 pm 23:53 Cloudy 72 22.2 71 21.7 97 97 Calm 29.96 1015 10 16 0.00 0.00

Powered by AerisWeather